ZHONGXING-6D

Last updated on Fri Dec 19 2025 00:02:53 GMT+0000 (Coordinated Universal Time)

1 52255U 22038A 25352.41038681 .00000000 00000+0 00000+0 0 9990 2 52255 0.0110 24.8911 0003141 248.0188 87.0542 1.00268861 13606
UTC large
Height (km)
Speed (km/s)
/
Latitude / Longitude
Inclination (degrees)
Orbital Period (minutes)
Azimuth
Elevation
Range (km)
Doppler Factor

Next 0 passes for location: London (51.5072 / 0.1276)

Sorry there are no passes over London.